Regional Weather Roundup
Issued by NWS Upton, NY

Current Version | Previous Version | Text Only | Print | Product List | Glossary Off
Versions: 1 2 3 4 5 6 7 8 9 10 11 12 13 14 15 16 17 18 19 20 21 22 23 24 25 26 27 28 29 30 31 32 33 34 35 36 37 38 39 40 41 42 43 44 45 46 47 48 49 50
486 ASUS41 KOKX 260108 RWROKX REGIONAL WEATHER ROUNDUP NATIONAL WEATHER SERVICE NEW YORK NY 800 PM EST SAT FEB 25 2017 NOTE: "FAIR" INDICATES FEW OR NO CLOUDS BELOW 12,000 FEET WITH NO SIGNIFICANT WEATHER AND/OR OBSTRUCTIONS TO VISIBILITY. NYZ071-072-176-178-NJZ106-104-260200- NEW YORK CITY METRO AREA CITY SKY/WX TMP DP RH WIND PRES REMARKS Central Park LGT RAIN 50 45 83 W7G28 29.61R Wall St Helipt NOT AVBL LaGuardia APRT LGT RAIN 54 46 74 W23G40 29.58R Kennedy INTL RAIN 55 55 100 W21G29 29.56R Breezy Point N/A 48 N/A N/A NW21G31 N/A Newark/Liberty RAIN 52 48 86 NW18G29 29.60R Teterboro RAIN 52 46 80 W16G23 29.60R $$ NYZ177-179-078>081-260200- LONG ISLAND NEW YORK CITY SKY/WX TMP DP RH WIND PRES REMARKS Jones Beach N/A 48 N/A N/A W14G20 N/A Matinecock PT NOT AVBL Farmingdale LGT RAIN 53 53 100 SW7 29.51S MacArthur/ISP RAIN 52 52 100 SW9 29.52S FOG Shirley RAIN 51 51 100 S12 29.53R FOG Westhampton FOG 50 50 100 SW7 29.54S VSB 1/2 Southampton NOT AVBL Bridgehampton NOT AVBL East Hampton FOG 49 48 99 S7 29.49F VSB 3/4 Montauk N/A 48 48 100 S6 29.50F $$ NYZ052-065-067-260200- HUDSON VALLEY CITY SKY/WX TMP DP RH WIND PRES REMARKS White Plains LGT RAIN 48 44 86 NW20G26 29.57R Newburgh LGT RAIN 45 43 93 NW14 29.58R Montgomery LGT RAIN 46 40 79 VRB6 29.58R Poughkeepsie CLOUDY 46 42 86 NW7 29.57R Albany LGT RAIN 38 34 85 NW8 29.62R WCI 32 $$ NJZ001-105-106-008-010-013-015-019>022-104-260200- NEW JERSEY CITY SKY/WX TMP DP RH WIND PRES REMARKS Newark/Liberty RAIN 52 48 86 NW18G29 29.60R Teterboro RAIN 52 46 80 W16G23 29.60R Caldwell LGT RAIN 49 44 83 NW8 29.62R Somerville CLOUDY 49 43 80 NW6 29.56F Linden NOT AVBL Sussex LGT RAIN 46 40 79 VRB6 29.61R Andover N/A 45 41 86 CALM 29.59S Trenton LGT RAIN 48 42 80 NW10 29.60F Millville LGT RAIN 50 47 89 NW7 29.63R Atlantic City LGT RAIN 51 46 83 NW13 29.61R Wrightstown LGT RAIN 48 43 81 NW13 29.60R Toms River LGT RAIN 50 48 93 NW7 29.61R Belmar LGT RAIN 49 45 86 W17G29 29.58R $$ PAZ047>061-062-071-260200- EASTERN PENNSYLVANIA CITY SKY/WX TMP DP RH WIND PRES REMARKS Philadelphia LGT RAIN 52 45 77 NW8 29.63S Allentown MOCLDY 46 37 71 W5 29.61S Scranton CLOUDY 43 43 100 W3 29.61R $$ CTZ002-004>006-009-010-012-RIZ004-006-007-MAZ004-011-015-260200- SOUTHERN NEW ENGLAND IN CT CITY SKY/WX TMP DP RH WIND PRES REMARKS Bradley INTL HVY RAIN 56 54 93 SW17G29 29.49R FOG Hartford CLOUDY 57 56 96 SW8 29.48R Danbury LGT RAIN 49 45 86 W13 29.55R Wtrbury/Oxford LGT RAIN 52 48 87 W9G21 29.55R FOG Bridgeport LGT RAIN 51 49 92 SW6 29.51R FOG Meriden LGT RAIN 56 53 90 W13G21 29.54R FOG New Haven HVY RAIN 49 48 97 VRB7 29.53R VSB 1 Chester FOG 52 52 100 S7 29.50S VSB 1/4 Groton FOG 49 48 97 SE3 29.49F VSB 3/4 Wilimantic CLOUDY 56 55 97 S7 29.48F FOG IN RI CITY SKY/WX TMP DP RH WIND PRES REMARKS Providence DRZL/FOG 52 51 97 S9 29.52F VSB 1 Block Island FOG 48 47 96 S12 29.51F VSB 1/2 Westerly FOG 49 47 93 SE5 29.51F VSB 1/2 IN MA CITY SKY/WX TMP DP RH WIND PRES REMARKS Boston LGT RAIN 56 56 100 S9 29.50F FOG Worcester LGT RAIN 55 53 93 S12G22 29.47F FOG Westfield HVY RAIN 46 43 89 NW16 29.50R FOG Provincetown LGT RAIN 52 52 100 S10 29.53R FOG Nantucket LGT RAIN 47 46 97 SE8 29.52S VSB 1/2 $$ ANZ330-335-338-340-345-350-353-355-260200- COASTAL MARINE OBSERVATIONS STATION/POSITION TIME SKY/WX TEMP WIND PRES VSBY WAVE AIR SEA DIR/SP/G HT/PER (UTC) (F) (DEG/KT/KT) (MB) (MI) (FT/S) NY HARB ENTRANCE 2350 48 44 190/ 14/ 16 998.8 5/11 20 S FIRE ISLAND 2350 47 44 160/ 10/ 12 999.0 6/11 GREAT SOUTH BAY NOT AVBL 23 SSW MONTAUK P 2350 48 45 1000.4 6/11 15 E BARNEGAT LI 0030 45 N/A 6/11 HUDSON CANYON 2350 48 1000.0 6/11 KINGS POINT 0030 52 41 1000.0 EXECUTION ROCKS NOT AVBL CENTRAL LI SOUND 0015 47 100/ 4/ 6 N/A 1/ 2 EASTERN LI SOUND NOT AVBL ROBBINS REEF 0030 53 290/ 31/ 37 1001.2 $$ >>>>>>>>>>>>>>>>>>>>>>>>>>>> KEY <<<<<<<<<<<<<<<<<<<<<<<<<<< > < > SKY/WX - Sky Condition/Present Weather < > TMP - Temperature in Fahrenheit < > DP - Dew Point in Fahrenheit < > RH - Relative Humidity in Percent < > WIND - Direction (from) and Speed in MPH < > PRES - Mean Sea Level Pressure (inches of Hg) < > WCI - Wind Chill Index < > VSB - VISIBILITY IN MILES < > HX - HEAT INDEX < > TC - TEMPERATURE IN CELSIUS < > VRB - VARIABLE WIND DIRECTION < > < >>>>>>>>>>>>>>>>>>>>>>>>>>>> KEY <<<<<<<<<<<<<<<<<<<<<<<<<<<

USA.gov is the U.S. government's official web portal to all federal, state and local government web resources and services.